Location: Notre Dame Regional High School Observatory
(37.3056°N, 89.6097°W)
Time: 10:05:27
(UTC-05:00)

Okean-O - Visible Passes

Search period start: 23 July 2016 00:00
Search period end: 02 August 2016 00:00
Orbit: 639 x 642 km, 98.1° (Epoch: 23 July)

Date Brightness Start Highest point End Pass type
(mag) Time Alt. Az. Time Alt. Az. Time Alt. Az.
23 Jul 3.9 04:44:31 10° NNE 04:48:42 39° E 04:52:51 10° SSE visible
24 Jul 2.8 05:07:56 10° NNE 05:12:23 75° ESE 05:16:48 10° S visible
25 Jul 5.5 03:57:56 10° ENE 03:59:10 11° E 04:00:25 10° ESE visible
26 Jul 5.0 04:19:42 10° NE 04:23:01 21° E 04:26:20 10° SE visible
27 Jul 4.0 04:42:41 10° NNE 04:46:48 37° E 04:50:55 10° SSE visible
28 Jul 2.9 05:06:04 10° NNE 05:10:30 71° ESE 05:14:55 10° S visible
29 Jul 5.6 03:56:36 10° E 03:57:16 10° E 03:57:56 10° E visible
29 Jul 2.7 05:29:44 10° N 05:34:07 62° WNW 05:38:29 10° SSW visible
30 Jul 5.1 04:17:55 10° NE 04:21:08 19° E 04:24:20 10° SE visible
31 Jul 4.1 04:40:50 10° NNE 04:44:55 35° E 04:48:58 10° SSE visible
01 Aug 3.0 05:04:12 10° NNE 05:08:37 66° E 05:13:01 10° S visible
